Location: ???????
(55.4362°N, 38.1183°E)
Time: 08:05:53
(UTC+00:00)

Oscar 11 - Pass Details

Date: 08 December 2021
Orbit: 611 x 625 km, 97.6° (Epoch: 25 January)

Event Time Altitude Azimuth Distance (km) Brightness Sun altitude
Rises 15:26:27 0° 219° (SW) 2,904 11.3 -19.5°
Reaches altitude 10° 15:29:49 10° 248° (WSW) 2,004 10.8 -20.0°
Maximum altitude 15:31:51 13° 276° (W) 1,813 10.5 -20.3°
Drops below altitude 10° 15:33:54 10° 304° (NW) 2,012 10.3 -20.6°
Sets 15:37:18 0° 332° (NNW) 2,925 10.8 -21.1°
